owner,sensor,date,latitude,longitude,sea_surface_height_above_sea_level,qcFlag 
TCOON,ioos:station:TCOON:068:1,2016-01-01T00:18:00Z,27.2970,-97.4049,4.368,1111122 
TCOON,ioos:station:TCOON:068:1,2016-01-01T01:18:00Z,27.2970,-97.4049,4.38,1111122 
TCOON,ioos:station:TCOON:068:1,2016-01-01T02:18:00Z,27.2970,-97.4049,4.369,1111122 
TCOON,ioos:station:TCOON:068:1,2016-01-01T03:18:00Z,27.2970,-97.4049,4.351,1111122 
TCOON,ioos:station:TCOON:068:1,2016-01-01T04:18:00Z,27.2970,-97.4049,4.348,1111122 
TCOON,ioos:station:TCOON:068:1,2016-01-01T05:18:00Z,27.2970,-97.4049,4.343,1111122 
TCOON,ioos:station:TCOON:068:1,2016-01-01T06:18:00Z,27.2970,-97.4049,4.368,1111122 
TCOON,ioos:station:TCOON:068:1,2016-01-01T07:18:00Z,27.2970,-97.4049,4.376,1111122 
TCOON,ioos:station:TCOON:068:1,2016-01-01T08:18:00Z,27.2970,-97.4049,4.379,1111122 
TCOON,ioos:station:TCOON:068:1,2016-01-01T09:24:00Z,27.2970,-97.4049,4.373,1111122 
TCOON,ioos:station:TCOON:068:1,2016-01-01T10:18:00Z,27.2970,-97.4049,4.379,1111122 
TCOON,ioos:station:TCOON:068:1,2016-01-01T11:18:00Z,27.2970,-97.4049,4.376,1111122 
TCOON,ioos:station:TCOON:068:1,2016-01-01T12:18:00Z,27.2970,-97.4049,4.375,1111122 
TCOON,ioos:station:TCOON:068:1,2016-01-01T13:18:00Z,27.2970,-97.4049,4.382,1111122 
TCOON,ioos:station:TCOON:068:1,2016-01-01T14:18:00Z,27.2970,-97.4049,4.383,1111122 
TCOON,ioos:station:TCOON:068:1,2016-01-01T15:18:00Z,27.2970,-97.4049,4.393,1111122 
TCOON,ioos:station:TCOON:068:1,2016-01-01T16:18:00Z,27.2970,-97.4049,4.404,1111122 
TCOON,ioos:station:TCOON:068:1,2016-01-01T17:18:00Z,27.2970,-97.4049,4.406,1111122 
TCOON,ioos:station:TCOON:068:1,2016-01-01T18:18:00Z,27.2970,-97.4049,4.422,1111122 
TCOON,ioos:station:TCOON:068:1,2016-01-02T21:24:00Z,27.2970,-97.4049,4.497,1111122 
TCOON,ioos:station:TCOON:068:1,2016-01-02T22:18:00Z,27.2970,-97.4049,4.508,1111122 
TCOON,ioos:station:TCOON:068:1,2016-01-02T23:12:00Z,27.2970,-97.4049,4.498,1111122 
TCOON,ioos:station:TCOON:068:1,2016-01-03T00:18:00Z,27.2970,-97.4049,4.492,1111122 
TCOON,ioos:station:TCOON:068:1,2016-01-03T01:18:00Z,27.2970,-97.4049,4.496,1111122 
TCOON,ioos:station:TCOON:068:1,2016-01-03T02:18:00Z,27.2970,-97.4049,4.501,1111122 
TCOON,ioos:station:TCOON:068:1,2016-01-03T03:18:00Z,27.2970,-97.4049,4.502,1111122 
TCOON,ioos:station:TCOON:068:1,2016-01-03T04:18:00Z,27.2970,-97.4049,4.5,1111122 
TCOON,ioos:station:TCOON:068:1,2016-01-03T05:18:00Z,27.2970,-97.4049,4.503,1111122 
TCOON,ioos:station:TCOON:068:1,2016-01-03T06:18:00Z,27.2970,-97.4049,4.503,1111122 
TCOON,ioos:station:TCOON:068:1,2016-01-03T07:18:00Z,27.2970,-97.4049,4.5,1111122 
TCOON,ioos:station:TCOON:068:1,2016-01-03T08:18:00Z,27.2970,-97.4049,4.502,1111122 
TCOON,ioos:station:TCOON:068:1,2016-01-03T09:24:00Z,27.2970,-97.4049,4.506,1111122 
TCOON,ioos:station:TCOON:068:1,2016-01-03T10:18:00Z,27.2970,-97.4049,4.505,1111122 
TCOON,ioos:station:TCOON:068:1,2016-01-03T11:18:00Z,27.2970,-97.4049,4.502,1111122 
TCOON,ioos:station:TCOON:068:1,2016-01-03T12:18:00Z,27.2970,-97.4049,4.502,1111122 
TCOON,ioos:station:TCOON:068:1,2016-01-03T13:18:00Z,27.2970,-97.4049,4.503,1111122 
TCOON,ioos:station:TCOON:068:1,2016-01-03T14:18:00Z,27.2970,-97.4049,4.504,1111122 
TCOON,ioos:station:TCOON:068:1,2016-01-03T15:18:00Z,27.2970,-97.4049,4.506,1111122 
TCOON,ioos:station:TCOON:068:1,2016-01-03T16:18:00Z,27.2970,-97.4049,4.507,1111122 
TCOON,ioos:station:TCOON:068:1,2016-01-03T17:18:00Z,27.2970,-97.4049,4.509,1111122 
TCOON,ioos:station:TCOON:068:1,2016-01-03T18:18:00Z,27.2970,-97.4049,4.503,1111122 
TCOON,ioos:station:TCOON:068:1,2016-01-03T19:18:00Z,27.2970,-97.4049,4.505,1111122 
TCOON,ioos:station:TCOON:068:1,2016-01-03T20:18:00Z,27.2970,-97.4049,4.499,1111122 
TCOON,ioos:station:TCOON:068:1,2016-01-03T21:18:00Z,27.2970,-97.4049,4.497,1111122 
TCOON,ioos:station:TCOON:068:1,2016-01-03T22:18:00Z,27.2970,-97.4049,4.495,1111122 
TCOON,ioos:station:TCOON:068:1,2016-01-03T23:18:00Z,27.2970,-97.4049,4.487,1111122 
TCOON,ioos:station:TCOON:068:1,2016-01-04T00:18:00Z,27.2970,-97.4049,4.48,1111122 
TCOON,ioos:station:TCOON:068:1,2016-01-04T01:18:00Z,27.2970,-97.4049,4.475,1111122 
TCOON,ioos:station:TCOON:068:1,2016-01-04T02:18:00Z,27.2970,-97.4049,4.478,1111122 
TCOON,ioos:station:TCOON:068:1,2016-01-04T03:42:00Z,27.2970,-97.4049,4.481,1111122 
TCOON,ioos:station:TCOON:068:1,2016-01-04T04:18:00Z,27.2970,-97.4049,4.48,1111122 
TCOON,ioos:station:TCOON:068:1,2016-01-04T05:12:00Z,27.2970,-97.4049,4.483,1111122 
TCOON,ioos:station:TCOON:068:1,2016-01-04T06:18:00Z,27.2970,-97.4049,4.487,1111122 
TCOON,ioos:station:TCOON:068:1,2016-01-04T07:18:00Z,27.2970,-97.4049,4.488,1111122 
TCOON,ioos:station:TCOON:068:1,2016-01-04T08:18:00Z,27.2970,-97.4049,4.487,1111122 
TCOON,ioos:station:TCOON:068:1,2016-01-04T09:24:00Z,27.2970,-97.4049,4.487,1111122 
TCOON,ioos:station:TCOON:068:1,2016-01-04T10:18:00Z,27.2970,-97.4049,4.482,1111122 
TCOON,ioos:station:TCOON:068:1,2016-01-04T11:18:00Z,27.2970,-97.4049,4.474,1111122 
TCOON,ioos:station:TCOON:068:1,2016-01-04T12:12:00Z,27.2970,-97.4049,4.467,1111122 
TCOON,ioos:station:TCOON:068:1,2016-01-04T13:18:00Z,27.2970,-97.4049,4.458,1111122 
TCOON,ioos:station:TCOON:068:1,2016-01-04T14:18:00Z,27.2970,-97.4049,4.451,1111122 
TCOON,ioos:station:TCOON:068:1,2016-01-04T15:18:00Z,27.2970,-97.4049,4.448,1111122 
TCOON,ioos:station:TCOON:068:1,2016-01-04T16:18:00Z,27.2970,-97.4049,4.445,1111122 
TCOON,ioos:station:TCOON:068:1,2016-01-04T17:18:00Z,27.2970,-97.4049,4.444,1111122 
TCOON,ioos:station:TCOON:068:1,2016-01-04T18:18:00Z,27.2970,-97.4049,4.434,1111122 
TCOON,ioos:station:TCOON:068:1,2016-01-04T19:18:00Z,27.2970,-97.4049,4.428,1111122 
TCOON,ioos:station:TCOON:068:1,2016-01-04T20:18:00Z,27.2970,-97.4049,4.431,1111122 
TCOON,ioos:station:TCOON:068:1,2016-01-04T21:18:00Z,27.2970,-97.4049,4.429,1111122 
TCOON,ioos:station:TCOON:068:1,2016-01-04T22:12:00Z,27.2970,-97.4049,4.429,1111122 
TCOON,ioos:station:TCOON:068:1,2016-01-04T23:18:00Z,27.2970,-97.4049,4.424,1111122 
TCOON,ioos:station:TCOON:068:1,2016-01-05T00:18:00Z,27.2970,-97.4049,4.418,1111122 
TCOON,ioos:station:TCOON:068:1,2016-01-05T01:18:00Z,27.2970,-97.4049,4.423,1111122 
TCOON,ioos:station:TCOON:068:1,2016-01-05T02:18:00Z,27.2970,-97.4049,4.43,1111122 
TCOON,ioos:station:TCOON:068:1,2016-01-05T03:18:00Z,27.2970,-97.4049,4.427,1111122 
TCOON,ioos:station:TCOON:068:1,2016-01-05T04:18:00Z,27.2970,-97.4049,4.422,1111122 
TCOON,ioos:station:TCOON:068:1,2016-01-05T05:18:00Z,27.2970,-97.4049,4.415,1111122 
TCOON,ioos:station:TCOON:068:1,2016-01-05T06:12:00Z,27.2970,-97.4049,4.414,1111122 
TCOON,ioos:station:TCOON:068:1,2016-01-05T07:18:00Z,27.2970,-97.4049,4.413,1111122 
TCOON,ioos:station:TCOON:068:1,2016-01-05T08:18:00Z,27.2970,-97.4049,4.411,1111122 
TCOON,ioos:station:TCOON:068:1,2016-01-05T10:06:00Z,27.2970,-97.4049,4.408,1111122 
TCOON,ioos:station:TCOON:068:1,2016-01-05T11:18:00Z,27.2970,-97.4049,4.412,1111122 
TCOON,ioos:station:TCOON:068:1,2016-01-05T12:12:00Z,27.2970,-97.4049,4.414,1111122 
TCOON,ioos:station:TCOON:068:1,2016-01-05T13:18:00Z,27.2970,-97.4049,4.409,1111122 
TCOON,ioos:station:TCOON:068:1,2016-01-05T14:18:00Z,27.2970,-97.4049,4.39,1111122 
TCOON,ioos:station:TCOON:068:1,2016-01-05T15:18:00Z,27.2970,-97.4049,4.397,1111122 
TCOON,ioos:station:TCOON:068:1,2016-01-05T16:18:00Z,27.2970,-97.4049,4.399,1111122 
TCOON,ioos:station:TCOON:068:1,2016-01-06T15:18:00Z,27.2970,-97.4049,4.428,1111122 
TCOON,ioos:station:TCOON:068:1,2016-01-06T16:18:00Z,27.2970,-97.4049,4.437,1111122 
TCOON,ioos:station:TCOON:068:1,2016-01-06T17:18:00Z,27.2970,-97.4049,4.438,1111122 
TCOON,ioos:station:TCOON:068:1,2016-01-06T18:18:00Z,27.2970,-97.4049,4.435,1111122 
TCOON,ioos:station:TCOON:068:1,2016-01-06T19:18:00Z,27.2970,-97.4049,4.433,1111122 
TCOON,ioos:station:TCOON:068:1,2016-01-06T20:24:00Z,27.2970,-97.4049,4.423,1111122 
TCOON,ioos:station:TCOON:068:1,2016-01-06T21:48:00Z,27.2970,-97.4049,4.414,1111122 
TCOON,ioos:station:TCOON:068:1,2016-01-06T22:30:00Z,27.2970,-97.4049,4.421,1111122 
TCOON,ioos:station:TCOON:068:1,2016-01-06T23:18:00Z,27.2970,-97.4049,4.429,1111122 
TCOON,ioos:station:TCOON:068:1,2016-01-07T00:18:00Z,27.2970,-97.4049,4.431,1111122 
TCOON,ioos:station:TCOON:068:1,2016-01-07T01:18:00Z,27.2970,-97.4049,4.43,1111122 
TCOON,ioos:station:TCOON:068:1,2016-01-07T02:18:00Z,27.2970,-97.4049,4.427,1111122 
TCOON,ioos:station:TCOON:068:1,2016-01-07T03:18:00Z,27.2970,-97.4049,4.425,1111122 
TCOON,ioos:station:TCOON:068:1,2016-01-07T04:18:00Z,27.2970,-97.4049,4.424,1111122 
TCOON,ioos:station:TCOON:068:1,2016-01-07T05:18:00Z,27.2970,-97.4049,4.424,1111122 
TCOON,ioos:station:TCOON:068:1,2016-01-07T06:18:00Z,27.2970,-97.4049,4.422,1111122 
TCOON,ioos:station:TCOON:068:1,2016-01-07T07:18:00Z,27.2970,-97.4049,4.422,1111122 
TCOON,ioos:station:TCOON:068:1,2016-01-07T08:18:00Z,27.2970,-97.4049,4.431,1111122 
TCOON,ioos:station:TCOON:068:1,2016-01-07T09:24:00Z,27.2970,-97.4049,4.429,1111122 
TCOON,ioos:station:TCOON:068:1,2016-01-07T10:18:00Z,27.2970,-97.4049,4.427,1111122 
TCOON,ioos:station:TCOON:068:1,2016-01-07T11:18:00Z,27.2970,-97.4049,4.431,1111122 
TCOON,ioos:station:TCOON:068:1,2016-01-07T12:30:00Z,27.2970,-97.4049,4.431,1111122 
TCOON,ioos:station:TCOON:068:1,2016-01-07T13:18:00Z,27.2970,-97.4049,4.431,1111122 
TCOON,ioos:station:TCOON:068:1,2016-01-07T14:18:00Z,27.2970,-97.4049,4.432,1111122 
TCOON,ioos:station:TCOON:068:1,2016-01-07T15:18:00Z,27.2970,-97.4049,4.435,1111122 
TCOON,ioos:station:TCOON:068:1,2016-01-07T16:18:00Z,27.2970,-97.4049,4.438,1111122 
TCOON,ioos:station:TCOON:068:1,2016-01-07T17:18:00Z,27.2970,-97.4049,4.444,1111122 
TCOON,ioos:station:TCOON:068:1,2016-01-07T18:18:00Z,27.2970,-97.4049,4.44,1111122 
TCOON,ioos:station:TCOON:068:1,2016-01-07T19:18:00Z,27.2970,-97.4049,4.439,1111122 
TCOON,ioos:station:TCOON:068:1,2016-01-07T20:18:00Z,27.2970,-97.4049,4.434,1111122 
TCOON,ioos:station:TCOON:068:1,2016-01-07T21:18:00Z,27.2970,-97.4049,4.428,1111122 
TCOON,ioos:station:TCOON:068:1,2016-01-07T22:18:00Z,27.2970,-97.4049,4.418,1111122 
TCOON,ioos:station:TCOON:068:1,2016-01-07T23:18:00Z,27.2970,-97.4049,4.419,1111122 
TCOON,ioos:station:TCOON:068:1,2016-01-08T00:18:00Z,27.2970,-97.4049,4.418,1111122 
TCOON,ioos:station:TCOON:068:1,2016-01-08T01:18:00Z,27.2970,-97.4049,4.42,1111122 
TCOON,ioos:station:TCOON:068:1,2016-01-08T02:18:00Z,27.2970,-97.4049,4.426,1111122 
TCOON,ioos:station:TCOON:068:1,2016-01-08T03:18:00Z,27.2970,-97.4049,4.427,1111122 
TCOON,ioos:station:TCOON:068:1,2016-01-08T04:18:00Z,27.2970,-97.4049,4.426,1111122 
TCOON,ioos:station:TCOON:068:1,2016-01-08T05:18:00Z,27.2970,-97.4049,4.428,1111122 
TCOON,ioos:station:TCOON:068:1,2016-01-08T06:24:00Z,27.2970,-97.4049,4.432,1111122 
TCOON,ioos:station:TCOON:068:1,2016-01-08T07:24:00Z,27.2970,-97.4049,4.438,1111122 
TCOON,ioos:station:TCOON:068:1,2016-01-08T08:18:00Z,27.2970,-97.4049,4.438,1111122 
TCOON,ioos:station:TCOON:068:1,2016-01-08T09:24:00Z,27.2970,-97.4049,4.44,1111122 
TCOON,ioos:station:TCOON:068:1,2016-01-08T10:18:00Z,27.2970,-97.4049,4.441,1111122 
TCOON,ioos:station:TCOON:068:1,2016-01-08T11:18:00Z,27.2970,-97.4049,4.441,1111122 
TCOON,ioos:station:TCOON:068:1,2016-01-08T12:18:00Z,27.2970,-97.4049,4.445,1111122 
TCOON,ioos:station:TCOON:068:1,2016-01-08T13:18:00Z,27.2970,-97.4049,4.447,1111122 
TCOON,ioos:station:TCOON:068:1,2016-01-08T14:18:00Z,27.2970,-97.4049,4.445,1111122 
TCOON,ioos:station:TCOON:068:1,2016-01-08T15:18:00Z,27.2970,-97.4049,4.446,1111122 
TCOON,ioos:station:TCOON:068:1,2016-01-08T16:18:00Z,27.2970,-97.4049,4.442,1111122 
TCOON,ioos:station:TCOON:068:1,2016-01-08T17:18:00Z,27.2970,-97.4049,4.446,1111122 
TCOON,ioos:station:TCOON:068:1,2016-01-08T18:18:00Z,27.2970,-97.4049,4.448,1111122 
TCOON,ioos:station:TCOON:068:1,2016-01-08T19:18:00Z,27.2970,-97.4049,4.437,1111122 
TCOON,ioos:station:TCOON:068:1,2016-01-08T20:18:00Z,27.2970,-97.4049,4.434,1111122 
TCOON,ioos:station:TCOON:068:1,2016-01-08T21:12:00Z,27.2970,-97.4049,4.428,1111122 
TCOON,ioos:station:TCOON:068:1,2016-01-08T22:18:00Z,27.2970,-97.4049,4.427,1111122 
TCOON,ioos:station:TCOON:068:1,2016-01-08T23:18:00Z,27.2970,-97.4049,4.42,1111122 
TCOON,ioos:station:TCOON:068:1,2016-01-09T00:18:00Z,27.2970,-97.4049,4.429,1111122 
TCOON,ioos:station:TCOON:068:1,2016-01-09T01:18:00Z,27.2970,-97.4049,4.434,1111122 
TCOON,ioos:station:TCOON:068:1,2016-01-09T02:18:00Z,27.2970,-97.4049,4.429,1111122 
TCOON,ioos:station:TCOON:068:1,2016-01-09T03:18:00Z,27.2970,-97.4049,4.427,1111122 
TCOON,ioos:station:TCOON:068:1,2016-01-09T04:18:00Z,27.2970,-97.4049,4.427,1111122 
TCOON,ioos:station:TCOON:068:1,2016-01-09T05:18:00Z,27.2970,-97.4049,4.429,1111122 
TCOON,ioos:station:TCOON:068:1,2016-01-09T06:18:00Z,27.2970,-97.4049,4.438,1111122 
TCOON,ioos:station:TCOON:068:1,2016-01-09T07:18:00Z,27.2970,-97.4049,4.444,1111122 
TCOON,ioos:station:TCOON:068:1,2016-01-09T08:18:00Z,27.2970,-97.4049,4.46,1111122 
TCOON,ioos:station:TCOON:068:1,2016-01-09T09:24:00Z,27.2970,-97.4049,4.46,1111122 
TCOON,ioos:station:TCOON:068:1,2016-01-09T10:18:00Z,27.2970,-97.4049,4.45,1111122 
TCOON,ioos:station:TCOON:068:1,2016-01-09T11:18:00Z,27.2970,-97.4049,4.451,1111122 
TCOON,ioos:station:TCOON:068:1,2016-01-09T12:18:00Z,27.2970,-97.4049,4.442,1111122 
TCOON,ioos:station:TCOON:068:1,2016-01-09T13:18:00Z,27.2970,-97.4049,4.448,1111122 
TCOON,ioos:station:TCOON:068:1,2016-01-09T14:18:00Z,27.2970,-97.4049,4.441,1111122 
TCOON,ioos:station:TCOON:068:1,2016-01-09T15:18:00Z,27.2970,-97.4049,4.446,1111122 
TCOON,ioos:station:TCOON:068:1,2016-01-09T16:18:00Z,27.2970,-97.4049,4.444,1111122 
TCOON,ioos:station:TCOON:068:1,2016-01-09T17:18:00Z,27.2970,-97.4049,4.47,1111122 
TCOON,ioos:station:TCOON:068:1,2016-01-09T18:24:00Z,27.2970,-97.4049,4.479,1111122 
TCOON,ioos:station:TCOON:068:1,2016-01-09T19:18:00Z,27.2970,-97.4049,4.471,1111122 
TCOON,ioos:station:TCOON:068:1,2016-01-09T20:18:00Z,27.2970,-97.4049,4.453,1111122 
TCOON,ioos:station:TCOON:068:1,2016-01-09T21:18:00Z,27.2970,-97.4049,4.441,1111122 
TCOON,ioos:station:TCOON:068:1,2016-01-09T22:18:00Z,27.2970,-97.4049,4.437,1111122 
TCOON,ioos:station:TCOON:068:1,2016-01-09T23:18:00Z,27.2970,-97.4049,4.434,1111122 
TCOON,ioos:station:TCOON:068:1,2016-01-10T00:18:00Z,27.2970,-97.4049,4.417,1111122 
TCOON,ioos:station:TCOON:068:1,2016-01-10T01:18:00Z,27.2970,-97.4049,4.403,1111122 
TCOON,ioos:station:TCOON:068:1,2016-01-10T02:18:00Z,27.2970,-97.4049,4.388,1111122 
TCOON,ioos:station:TCOON:068:1,2016-01-10T03:18:00Z,27.2970,-97.4049,4.392,1111122 
TCOON,ioos:station:TCOON:068:1,2016-01-10T04:18:00Z,27.2970,-97.4049,4.394,1111122 
TCOON,ioos:station:TCOON:068:1,2016-01-10T05:18:00Z,27.2970,-97.4049,4.374,1111122 
TCOON,ioos:station:TCOON:068:1,2016-01-10T06:18:00Z,27.2970,-97.4049,4.404,1111122 
TCOON,ioos:station:TCOON:068:1,2016-01-10T07:18:00Z,27.2970,-97.4049,4.409,1111122 
TCOON,ioos:station:TCOON:068:1,2016-01-10T08:18:00Z,27.2970,-97.4049,4.426,1111122 
TCOON,ioos:station:TCOON:068:1,2016-01-10T09:24:00Z,27.2970,-97.4049,4.441,1111122 
TCOON,ioos:station:TCOON:068:1,2016-01-10T10:18:00Z,27.2970,-97.4049,4.444,1111122 
TCOON,ioos:station:TCOON:068:1,2016-01-10T11:18:00Z,27.2970,-97.4049,4.433,1111122 
TCOON,ioos:station:TCOON:068:1,2016-01-10T12:18:00Z,27.2970,-97.4049,4.433,1111122 
TCOON,ioos:station:TCOON:068:1,2016-01-10T13:18:00Z,27.2970,-97.4049,4.445,1111122 
TCOON,ioos:station:TCOON:068:1,2016-01-10T14:18:00Z,27.2970,-97.4049,4.445,1111122 
TCOON,ioos:station:TCOON:068:1,2016-01-10T15:18:00Z,27.2970,-97.4049,4.446,1111122 
TCOON,ioos:station:TCOON:068:1,2016-01-10T16:18:00Z,27.2970,-97.4049,4.437,1111122 
TCOON,ioos:station:TCOON:068:1,2016-01-10T17:24:00Z,27.2970,-97.4049,4.434,1111122 
TCOON,ioos:station:TCOON:068:1,2016-01-10T18:24:00Z,27.2970,-97.4049,4.444,1111122 
TCOON,ioos:station:TCOON:068:1,2016-01-10T19:24:00Z,27.2970,-97.4049,4.438,1111122 
TCOON,ioos:station:TCOON:068:1,2016-01-10T20:24:00Z,27.2970,-97.4049,4.439,1111122 
TCOON,ioos:station:TCOON:068:1,2016-01-10T21:18:00Z,27.2970,-97.4049,4.44,1111122 
TCOON,ioos:station:TCOON:068:1,2016-01-10T22:18:00Z,27.2970,-97.4049,4.425,1111122 
TCOON,ioos:station:TCOON:068:1,2016-01-10T23:18:00Z,27.2970,-97.4049,4.401,1111122 
TCOON,ioos:station:TCOON:068:1,2016-01-11T00:18:00Z,27.2970,-97.4049,4.396,1111122 
TCOON,ioos:station:TCOON:068:1,2016-01-11T01:18:00Z,27.2970,-97.4049,4.41,1111122 
TCOON,ioos:station:TCOON:068:1,2016-01-11T02:18:00Z,27.2970,-97.4049,4.413,1111122 
TCOON,ioos:station:TCOON:068:1,2016-01-11T03:24:00Z,27.2970,-97.4049,4.42,1111122 
TCOON,ioos:station:TCOON:068:1,2016-01-11T04:18:00Z,27.2970,-97.4049,4.426,1111122 
TCOON,ioos:station:TCOON:068:1,2016-01-11T05:18:00Z,27.2970,-97.4049,4.418,1111122 
TCOON,ioos:station:TCOON:068:1,2016-01-11T06:18:00Z,27.2970,-97.4049,4.416,1111122 
TCOON,ioos:station:TCOON:068:1,2016-01-11T07:18:00Z,27.2970,-97.4049,4.42,1111122 
TCOON,ioos:station:TCOON:068:1,2016-01-11T08:18:00Z,27.2970,-97.4049,4.423,1111122 
TCOON,ioos:station:TCOON:068:1,2016-01-11T09:24:00Z,27.2970,-97.4049,4.419,1111122 
TCOON,ioos:station:TCOON:068:1,2016-01-11T10:12:00Z,27.2970,-97.4049,4.415,1111122 
TCOON,ioos:station:TCOON:068:1,2016-01-11T11:18:00Z,27.2970,-97.4049,4.417,1111122 
TCOON,ioos:station:TCOON:068:1,2016-01-11T12:12:00Z,27.2970,-97.4049,4.42,1111122 
TCOON,ioos:station:TCOON:068:1,2016-01-11T13:18:00Z,27.2970,-97.4049,4.416,1111122 
TCOON,ioos:station:TCOON:068:1,2016-01-11T14:18:00Z,27.2970,-97.4049,4.415,1111122 
TCOON,ioos:station:TCOON:068:1,2016-01-11T15:18:00Z,27.2970,-97.4049,4.41,1111122 
TCOON,ioos:station:TCOON:068:1,2016-01-11T16:18:00Z,27.2970,-97.4049,4.407,1111122 
TCOON,ioos:station:TCOON:068:1,2016-01-11T17:18:00Z,27.2970,-97.4049,4.407,1111122 
TCOON,ioos:station:TCOON:068:1,2016-01-11T18:18:00Z,27.2970,-97.4049,4.412,1111122 
TCOON,ioos:station:TCOON:068:1,2016-01-11T19:18:00Z,27.2970,-97.4049,4.416,1111122 
TCOON,ioos:station:TCOON:068:1,2016-01-11T20:18:00Z,27.2970,-97.4049,4.414,1111122 
TCOON,ioos:station:TCOON:068:1,2016-01-11T21:24:00Z,27.2970,-97.4049,4.41,1111122 
TCOON,ioos:station:TCOON:068:1,2016-01-11T22:18:00Z,27.2970,-97.4049,4.412,1111122 
TCOON,ioos:station:TCOON:068:1,2016-01-11T23:18:00Z,27.2970,-97.4049,4.418,1111122 
TCOON,ioos:station:TCOON:068:1,2016-01-12T00:24:00Z,27.2970,-97.4049,4.415,1111122 
TCOON,ioos:station:TCOON:068:1,2016-01-12T01:18:00Z,27.2970,-97.4049,4.41,1111122 
TCOON,ioos:station:TCOON:068:1,2016-01-12T02:18:00Z,27.2970,-97.4049,4.409,1111122 
TCOON,ioos:station:TCOON:068:1,2016-01-12T03:18:00Z,27.2970,-97.4049,4.407,1111122 
TCOON,ioos:station:TCOON:068:1,2016-01-12T04:24:00Z,27.2970,-97.4049,4.402,1111122 
TCOON,ioos:station:TCOON:068:1,2016-01-12T05:18:00Z,27.2970,-97.4049,4.403,1111122 
TCOON,ioos:station:TCOON:068:1,2016-01-12T06:24:00Z,27.2970,-97.4049,4.406,1111122 
TCOON,ioos:station:TCOON:068:1,2016-01-12T07:18:00Z,27.2970,-97.4049,4.407,1111122 
TCOON,ioos:station:TCOON:068:1,2016-01-12T08:36:00Z,27.2970,-97.4049,4.409,1111122 
TCOON,ioos:station:TCOON:068:1,2016-01-12T09:30:00Z,27.2970,-97.4049,4.415,1111122 
TCOON,ioos:station:TCOON:068:1,2016-01-12T10:18:00Z,27.2970,-97.4049,4.415,1111122 
TCOON,ioos:station:TCOON:068:1,2016-01-12T11:18:00Z,27.2970,-97.4049,4.416,1111122 
TCOON,ioos:station:TCOON:068:1,2016-01-12T12:18:00Z,27.2970,-97.4049,4.411,1111122 
TCOON,ioos:station:TCOON:068:1,2016-01-12T13:30:00Z,27.2970,-97.4049,4.412,1111122 
TCOON,ioos:station:TCOON:068:1,2016-01-12T14:18:00Z,27.2970,-97.4049,4.407,1111122 
TCOON,ioos:station:TCOON:068:1,2016-01-13T03:18:00Z,27.2970,-97.4049,4.408,1111122 
TCOON,ioos:station:TCOON:068:1,2016-01-13T04:24:00Z,27.2970,-97.4049,4.405,1111122 
TCOON,ioos:station:TCOON:068:1,2016-01-13T05:18:00Z,27.2970,-97.4049,4.399,1111122 
TCOON,ioos:station:TCOON:068:1,2016-01-13T06:24:00Z,27.2970,-97.4049,4.395,1111122 
TCOON,ioos:station:TCOON:068:1,2016-01-13T07:18:00Z,27.2970,-97.4049,4.392,1111122 
TCOON,ioos:station:TCOON:068:1,2016-01-13T08:24:00Z,27.2970,-97.4049,4.393,1111122 
TCOON,ioos:station:TCOON:068:1,2016-01-13T09:24:00Z,27.2970,-97.4049,4.391,1111122 
TCOON,ioos:station:TCOON:068:1,2016-01-13T10:18:00Z,27.2970,-97.4049,4.389,1111122 
TCOON,ioos:station:TCOON:068:1,2016-01-13T11:30:00Z,27.2970,-97.4049,4.39,1111122 
TCOON,ioos:station:TCOON:068:1,2016-01-13T12:30:00Z,27.2970,-97.4049,4.387,1111122 
TCOON,ioos:station:TCOON:068:1,2016-01-13T13:30:00Z,27.2970,-97.4049,4.38,1111122 
TCOON,ioos:station:TCOON:068:1,2016-01-13T14:24:00Z,27.2970,-97.4049,4.367,1111122 
TCOON,ioos:station:TCOON:068:1,2016-01-13T15:18:00Z,27.2970,-97.4049,4.395,1111122 
TCOON,ioos:station:TCOON:068:1,2016-01-13T17:12:00Z,27.2970,-97.4049,4.39,1111122 
TCOON,ioos:station:TCOON:068:1,2016-01-13T18:18:00Z,27.2970,-97.4049,4.387,1111122 
TCOON,ioos:station:TCOON:068:1,2016-01-13T19:18:00Z,27.2970,-97.4049,4.383,1111122 
TCOON,ioos:station:TCOON:068:1,2016-01-13T20:18:00Z,27.2970,-97.4049,4.382,1111122 
TCOON,ioos:station:TCOON:068:1,2016-01-13T21:18:00Z,27.2970,-97.4049,4.377,1111122 
TCOON,ioos:station:TCOON:068:1,2016-01-13T22:24:00Z,27.2970,-97.4049,4.377,1111122 
TCOON,ioos:station:TCOON:068:1,2016-01-13T23:42:00Z,27.2970,-97.4049,4.374,1111122 
TCOON,ioos:station:TCOON:068:1,2016-01-14T00:30:00Z,27.2970,-97.4049,4.371,1111122 
TCOON,ioos:station:TCOON:068:1,2016-01-14T01:18:00Z,27.2970,-97.4049,4.371,1111122 
TCOON,ioos:station:TCOON:068:1,2016-01-14T02:18:00Z,27.2970,-97.4049,4.375,1111122 
TCOON,ioos:station:TCOON:068:1,2016-01-14T03:18:00Z,27.2970,-97.4049,4.366,1111122 
TCOON,ioos:station:TCOON:068:1,2016-01-14T04:18:00Z,27.2970,-97.4049,4.368,1111122 
TCOON,ioos:station:TCOON:068:1,2016-01-14T05:18:00Z,27.2970,-97.4049,4.365,1111122 
TCOON,ioos:station:TCOON:068:1,2016-01-14T06:18:00Z,27.2970,-97.4049,4.366,1111122 
TCOON,ioos:station:TCOON:068:1,2016-01-14T07:18:00Z,27.2970,-97.4049,4.364,1111122 
TCOON,ioos:station:TCOON:068:1,2016-01-14T08:18:00Z,27.2970,-97.4049,4.359,1111122 
TCOON,ioos:station:TCOON:068:1,2016-01-14T09:36:00Z,27.2970,-97.4049,4.359,1111122 
TCOON,ioos:station:TCOON:068:1,2016-01-14T10:18:00Z,27.2970,-97.4049,4.36,1111122 
TCOON,ioos:station:TCOON:068:1,2016-01-14T11:18:00Z,27.2970,-97.4049,4.359,1111122 
TCOON,ioos:station:TCOON:068:1,2016-01-14T12:18:00Z,27.2970,-97.4049,4.366,1111122 
TCOON,ioos:station:TCOON:068:1,2016-01-14T13:18:00Z,27.2970,-97.4049,4.366,1111122 
TCOON,ioos:station:TCOON:068:1,2016-01-14T14:18:00Z,27.2970,-97.4049,4.367,1111122 
TCOON,ioos:station:TCOON:068:1,2016-01-14T15:18:00Z,27.2970,-97.4049,4.366,1111122 
TCOON,ioos:station:TCOON:068:1,2016-01-14T16:18:00Z,27.2970,-97.4049,4.368,1111122 
TCOON,ioos:station:TCOON:068:1,2016-01-14T17:18:00Z,27.2970,-97.4049,4.375,1111122 
TCOON,ioos:station:TCOON:068:1,2016-01-14T18:18:00Z,27.2970,-97.4049,4.378,1111122 
TCOON,ioos:station:TCOON:068:1,2016-01-14T19:18:00Z,27.2970,-97.4049,4.378,1111122 
TCOON,ioos:station:TCOON:068:1,2016-01-14T20:18:00Z,27.2970,-97.4049,4.378,1111122 
TCOON,ioos:station:TCOON:068:1,2016-01-14T21:18:00Z,27.2970,-97.4049,4.373,1111122 
TCOON,ioos:station:TCOON:068:1,2016-01-14T22:18:00Z,27.2970,-97.4049,4.37,1111122 
TCOON,ioos:station:TCOON:068:1,2016-01-14T23:18:00Z,27.2970,-97.4049,4.365,1111122 
TCOON,ioos:station:TCOON:068:1,2016-01-15T00:18:00Z,27.2970,-97.4049,4.367,1111122 
TCOON,ioos:station:TCOON:068:1,2016-01-15T01:18:00Z,27.2970,-97.4049,4.368,1111122 
TCOON,ioos:station:TCOON:068:1,2016-01-15T02:18:00Z,27.2970,-97.4049,4.363,1111122 
TCOON,ioos:station:TCOON:068:1,2016-01-15T03:24:00Z,27.2970,-97.4049,4.362,1111122 
TCOON,ioos:station:TCOON:068:1,2016-01-15T04:18:00Z,27.2970,-97.4049,4.36,1111122 
TCOON,ioos:station:TCOON:068:1,2016-01-15T05:18:00Z,27.2970,-97.4049,4.363,1111122 
TCOON,ioos:station:TCOON:068:1,2016-01-15T06:18:00Z,27.2970,-97.4049,4.36,1111122 
TCOON,ioos:station:TCOON:068:1,2016-01-15T07:18:00Z,27.2970,-97.4049,4.359,1111122 
TCOON,ioos:station:TCOON:068:1,2016-01-15T08:18:00Z,27.2970,-97.4049,4.36,1111122 
TCOON,ioos:station:TCOON:068:1,2016-01-15T09:30:00Z,27.2970,-97.4049,4.357,1111122 
TCOON,ioos:station:TCOON:068:1,2016-01-15T10:18:00Z,27.2970,-97.4049,4.358,1111122 